Theta_e
328 321 317 316 307 305 302 303 307 309 310 322 316 322 323 327 325 322 349 353 355 356 359 360 362 363 363 363 363 363 363 363 363 362 361 360 359 360 362 362 362 361 360 359 360 360 359 359 358
323 315 315 310 304 301 304 305 305 311 312 312 314 325 327 323 334 342 347 354 356 357 359 358 362 361 362 362 361 361 362 362 361 360 359 359 359 361 361 362 362 360 358 358 357 357 357 357 357
317 313 308 306 303 301 303 305 308 310 312 310 314 331 330 329 338 345 352 356 355 356 358 359 361 361 361 361 360 360 360 360 360 359 359 359 360 361 361 361 361 359 357 356 356 355 355 356 356
313 312 307 300 299 304 307 308 308 308 311 311 313 311 323 340 341 349 355 355 353 353 356 361 360 360 361 361 360 359 359 359 359 359 359 360 361 361 361 361 360 358 356 356 356 355 355 355 354
313 308 299 297 298 302 305 310 308 308 309 311 311 311 313 343 346 353 354 354 351 352 354 358 360 360 361 360 360 359 358 358 358 359 360 361 361 361 360 361 360 359 358 357 357 356 357 356 356
306 307 296 294 297 302 305 308 309 309 310 310 311 311 317 347 348 353 354 353 352 351 354 356 359 360 359 359 358 358 357 358 359 359 360 360 360 360 360 359 359 359 358 358 357 356 356 355 354
303 301 296 297 297 299 303 308 307 309 310 311 315 311 327 342 350 353 354 353 353 353 354 355 354 358 359 358 357 356 356 357 358 358 358 359 359 359 358 358 358 358 357 357 356 356 355 354 353
306 304 297 297 296 297 304 306 309 308 309 313 315 313 320 341 351 353 353 352 351 352 352 353 353 351 352 354 357 356 356 357 357 358 358 358 358 357 357 357 357 356 355 355 356 356 354 353 353
304 298 295 296 296 299 304 304 308 311 310 311 313 314 330 346 352 350 349 349 349 350 351 351 349 350 349 348 353 356 355 356 357 357 358 355 352 353 354 354 357 355 355 355 355 354 354 354 353
302 297 297 299 301 301 304 304 306 307 307 309 311 328 345 347 348 346 345 345 346 348 349 350 350 350 349 347 352 350 348 347 348 350 353 351 354 353 351 353 356 355 355 355 355 354 353 351 349
303 297 301 300 302 303 303 303 307 305 305 308 310 315 339 344 345 346 346 346 346 348 349 350 352 352 349 347 352 350 349 349 350 352 354 353 352 353 350 349 351 353 354 349 350 350 349 347 347
300 303 303 302 303 303 302 304 303 305 306 311 311 312 316 339 342 345 346 347 347 348 349 351 352 352 352 350 350 350 349 349 347 350 353 350 351 352 351 348 348 350 348 349 350 347 348 347 345
300 302 304 305 305 305 305 302 303 304 308 310 311 312 312 321 336 344 347 348 349 348 349 351 352 352 352 353 350 350 350 349 348 349 351 349 349 351 351 351 349 347 347 346 345 344 344 344 344
300 301 302 304 304 305 303 304 305 306 310 309 309 310 311 313 318 332 345 346 348 349 349 351 352 354 352 353 353 351 351 350 350 349 349 350 349 350 349 350 349 348 347 345 344 345 346 348 348
302 298 301 302 303 302 304 299 300 307 310 309 310 311 312 314 314 321 342 346 348 350 351 351 354 354 354 352 352 352 350 349 349 350 352 351 349 349 348 346 346 346 348 348 347 348 350 349 348
300 299 294 300 302 302 302 294 303 307 308 307 309 311 311 313 313 326 339 347 349 350 350 352 351 352 352 354 353 350 351 350 350 350 351 352 350 349 347 343 342 344 346 345 345 347 347 347 347
295 290 293 296 304 302 300 296 302 307 307 307 309 310 311 313 315 321 338 348 349 349 351 350 352 350 352 354 353 352 354 351 351 350 350 351 350 349 347 344 343 346 343 344 345 347 347 346 347
290 290 293 293 298 301 299 299 303 306 306 307 308 309 310 312 314 317 340 348 349 350 352 353 353 354 355 352 352 350 350 350 350 350 350 351 351 350 348 346 346 346 344 345 346 348 348 347 347
294 292 291 294 299 297 296 297 300 304 305 305 307 308 310 311 315 317 323 347 349 350 351 352 351 353 352 347 345 346 344 346 348 350 352 351 352 351 350 347 347 346 344 347 350 349 349 347 353
293 291 291 295 297 297 296 296 300 302 302 304 305 306 308 310 313 315 317 338 347 348 350 351 352 352 350 349 349 347 346 347 348 350 351 352 352 352 350 350 348 347 342 349 350 350 349 351 355
292 291 292 292 296 298 296 294 297 301 303 304 305 307 308 309 311 314 316 326 344 346 347 349 351 351 351 351 350 347 347 346 344 345 347 349 351 351 352 351 349 347 345 342 349 353 352 347 346
290 296 294 293 292 287 296 286 295 298 300 302 303 305 306 308 311 313 315 317 335 344 347 348 350 350 350 350 346 346 341 338 340 343 345 346 349 350 351 351 350 350 349 350 348 351 352 349 345
292 298 295 295 292 292 292 288 293 299 297 300 303 305 307 308 310 312 314 317 322 340 345 347 349 347 349 349 346 344 343 342 345 346 347 350 348 349 349 352 352 352 351 353 355 353 350 344 340
296 294 296 295 293 284 290 290 290 295 298 301 304 305 307 308 310 313 315 317 317 330 341 345 345 347 348 347 348 345 342 344 345 344 343 344 347 348 351 351 353 351 351 352 347 341 338 338 341
294 289 285 282 282 282 292 289 292 298 301 303 303 305 307 309 310 311 312 314 316 321 337 342 344 344 346 346 347 347 346 348 348 345 344 346 347 348 351 352 352 352 346 340 337 334 334 337 341
288 289 284 276 280 284 291 286 291 301 303 305 306 307 308 308 309 310 312 314 315 317 331 340 342 342 343 345 347 349 348 346 346 349 347 347 350 353 348 344 344 345 339 337 336 338 336 337 338
289 286 293 285 286 283 287 291 296 299 300 303 305 307 308 310 311 311 312 313 314 316 324 335 339 342 343 345 349 350 349 351 350 355 355 354 344 342 343 347 338 338 336 335 336 334 331 327 327
291 294 285 287 278 278 284 286 288 294 298 301 302 304 307 309 311 312 314 317 315 315 318 331 338 340 343 345 347 349 352 352 353 355 347 343 343 345 343 339 338 333 337 326 324 322 321 321 320
289 287 289 290 288 282 281 286 297 298 300 300 304 308 309 310 311 314 316 319 321 318 314 322 333 337 342 344 346 347 349 351 354 349 343 343 347 344 339 338 338 336 331 322 318 317 316 316 316
293 291 291 285 284 288 286 286 300 303 306 306 305 306 308 311 312 313 315 318 324 323 316 317 329 334 339 343 345 347 349 351 347 344 343 346 344 342 340 336 330 325 319 315 312 312 312 311 311
Wind_Speed
4 2 3 3 5 3 5 5 3 5 4 1 1 6 5 6 4 5 4 11 19 23 20 21 21 20 20 20 20 20 20 20 19 20 20 19 19 19 17 15 14 14 14 13 13 12 12 12 12
1 3 2 2 6 9 10 6 9 10 2 5 6 7 7 6 2 6 11 11 21 21 19 21 21 21 21 21 21 20 19 19 18 19 19 19 19 18 17 15 13 13 14 13 12 12 12 12 12
3 1 3 4 5 16 13 8 10 8 8 4 4 4 3 2 3 9 8 18 21 20 19 19 22 22 21 21 21 21 20 19 18 19 19 18 17 17 16 14 13 13 13 13 13 12 12 12 12
3 3 2 7 16 15 20 6 5 4 3 3 4 7 3 1 4 10 21 24 21 20 19 21 21 22 21 21 20 20 20 19 19 18 18 17 16 15 14 13 13 12 12 13 12 12 12 11 11
2 1 5 8 19 10 7 8 5 5 4 4 7 8 5 4 3 15 23 23 22 20 18 20 20 21 21 21 21 20 20 19 18 18 18 16 15 13 13 12 11 11 11 12 12 12 10 10 9
4 1 6 18 19 16 12 10 10 11 7 7 7 6 1 2 8 15 21 23 22 21 19 18 20 21 20 22 21 20 19 19 18 17 16 15 14 13 12 12 11 10 10 11 11 10 10 9 9
5 5 11 13 14 18 15 7 12 15 14 14 7 9 2 3 8 14 17 19 21 20 19 17 18 19 20 19 20 20 19 18 17 16 15 14 13 12 12 10 10 10 10 10 11 10 10 9 8
3 4 9 9 13 17 6 8 11 11 10 2 6 6 2 4 13 16 17 18 19 19 18 18 16 18 17 17 20 19 19 18 17 16 15 14 13 12 12 10 10 11 10 11 10 9 9 8 6
4 8 15 16 16 12 2 9 6 3 11 5 3 1 4 12 17 17 17 18 18 16 17 17 18 17 16 16 15 17 19 18 16 15 15 13 10 11 12 8 11 11 10 10 9 8 7 6 4
10 10 16 5 12 8 13 9 2 4 7 9 5 5 8 13 16 19 21 20 23 21 20 17 17 17 16 12 15 14 14 12 12 13 13 10 10 9 9 9 10 10 9 8 7 6 5 6 3
8 17 13 7 9 11 17 17 7 9 15 11 8 1 7 12 12 15 18 21 23 24 17 19 17 16 17 14 11 8 8 9 9 13 12 10 9 8 7 6 7 7 8 6 7 6 5 4 4
9 10 15 5 9 17 17 9 13 17 21 11 7 6 6 10 13 15 17 18 20 23 23 20 19 16 15 10 10 10 9 9 9 11 12 9 7 8 7 6 7 6 5 5 5 4 3 5 5
12 15 8 9 13 17 16 19 13 20 14 10 13 18 15 12 13 14 16 16 19 21 22 22 20 17 15 13 11 11 10 10 10 11 12 9 9 8 8 7 6 6 5 5 5 4 4 4 5
1 8 13 15 18 16 17 18 13 11 12 20 22 23 23 20 20 15 17 20 22 21 22 22 21 17 17 14 14 11 10 11 10 10 11 13 9 9 9 8 7 6 6 5 4 4 4 4 4
5 11 12 12 9 10 8 22 29 22 23 21 14 14 19 18 17 20 22 23 24 21 21 22 21 20 17 17 15 11 11 11 10 10 12 13 12 11 10 8 7 7 6 6 5 5 4 5 5
5 6 9 2 9 9 15 22 5 5 18 24 22 19 19 17 15 17 20 21 21 21 23 21 18 20 18 15 12 10 10 10 9 9 9 14 13 12 10 8 8 7 6 6 6 5 5 5 5
5 11 8 5 8 3 17 11 2 8 5 11 15 17 18 19 13 14 20 20 21 23 23 22 21 22 20 15 12 12 12 11 9 8 9 13 14 13 10 8 7 8 6 7 6 6 6 5 5
9 11 10 14 4 10 14 16 14 15 11 11 13 12 14 18 15 10 18 20 21 22 21 21 18 19 18 13 11 10 9 9 9 10 11 14 12 13 10 8 8 8 7 7 6 7 6 6 5
18 17 17 14 12 17 21 22 20 18 20 18 16 16 16 17 14 9 12 19 20 21 21 22 22 19 15 11 11 10 12 10 10 11 14 14 12 13 12 9 9 8 8 8 8 7 7 6 4
20 20 19 17 13 16 20 25 19 19 21 19 21 20 19 21 18 13 9 17 20 22 21 21 22 20 18 13 12 11 11 11 11 10 12 13 13 13 11 10 9 9 8 9 7 7 5 4 2
21 21 18 18 17 16 17 25 23 19 23 22 22 21 20 21 21 16 10 14 19 22 22 22 22 22 20 18 12 9 10 7 10 11 10 12 14 13 13 13 10 9 8 8 9 7 6 3 1
20 19 18 18 14 13 2 13 12 9 14 16 22 22 23 22 22 16 15 12 18 21 20 22 21 22 21 21 17 19 13 13 12 11 10 10 14 14 13 12 10 9 7 7 6 5 5 4 3
16 14 16 15 14 15 17 12 13 9 17 18 16 19 21 23 23 19 17 13 17 18 19 19 19 19 18 19 18 15 14 9 7 8 12 11 11 13 12 10 8 5 3 5 4 2 1 2 1
9 11 13 11 11 11 23 15 14 14 17 17 17 19 20 20 20 15 15 14 11 16 18 19 20 19 20 20 19 18 15 10 9 9 10 9 8 9 10 9 7 5 2 2 7 9 11 9 4
10 4 6 8 8 12 8 11 20 15 19 18 18 18 15 14 12 13 14 14 13 16 18 18 21 21 20 21 20 18 17 15 16 12 9 10 8 7 8 9 8 6 9 9 7 6 5 8 6
13 10 6 4 6 5 5 10 13 16 23 20 14 14 12 12 11 9 10 11 12 14 19 20 21 21 21 21 21 18 19 12 11 12 9 7 7 7 12 11 11 12 8 6 3 2 4 7 4
9 11 15 5 6 6 6 16 18 19 21 18 16 16 16 14 12 12 9 10 11 11 15 19 19 20 21 21 17 17 17 15 13 13 10 9 12 12 15 18 14 9 5 5 6 3 6 2 1
13 5 7 5 6 7 8 15 11 10 8 7 12 13 10 7 8 8 9 7 8 11 11 15 18 20 21 21 17 16 16 16 14 14 15 15 15 18 18 17 16 14 14 9 11 5 3 5 3
9 7 7 4 7 6 6 3 3 9 12 3 3 4 4 5 6 7 8 8 8 8 10 13 16 18 17 18 17 16 15 16 14 14 16 17 18 17 17 16 14 14 14 12 14 7 6 7 6
11 7 15 5 8 9 9 9 4 4 6 5 7 9 9 10 9 8 9 9 9 10 10 13 15 17 17 17 17 17 15 14 14 15 17 20 18 16 14 13 12 12 10 11 16 9 6 7 6
Wind_Direction
300 300 183 193 235 252 236 216 291 216 197 126 279 224 237 308 202 295 342 164 148 149 153 156 149 143 139 136 134 135 141 145 147 145 142 141 142 143 145 144 143 144 145 144 140 135 130 129 130
294 157 165 147 235 229 238 192 214 239 212 305 272 224 242 246 125 116 133 156 156 146 154 156 151 145 144 139 136 138 142 144 145 142 141 143 146 147 145 146 147 149 150 146 140 135 132 132 134
177 33 218 216 220 230 244 186 217 256 280 301 297 240 296 187 189 170 145 155 153 150 155 156 153 149 147 143 142 143 145 146 146 144 144 147 149 147 148 148 149 153 151 145 141 138 136 136 135
181 157 132 235 223 240 243 195 205 189 253 187 10 303 274 9 174 171 149 151 157 154 157 154 154 151 149 146 145 145 146 149 149 146 146 149 149 149 148 149 152 151 150 147 143 141 140 140 141
87 204 213 236 240 249 238 243 197 223 270 286 340 298 286 35 119 146 152 155 157 156 158 159 156 154 151 150 149 150 151 151 150 148 150 150 149 148 145 145 149 150 148 148 144 145 143 144 149
156 239 219 232 235 242 247 238 255 254 266 279 287 281 264 119 142 157 157 159 158 157 158 159 159 156 156 154 152 153 153 152 150 150 150 147 144 143 141 143 147 149 147 150 150 150 150 152 158
222 201 230 248 248 252 241 197 228 249 255 250 251 267 91 158 147 158 160 158 156 159 160 161 166 160 157 157 155 154 155 153 149 147 142 140 139 138 138 142 148 149 147 150 157 162 162 164 169
194 230 227 230 233 256 237 207 229 210 248 222 208 224 229 166 155 155 160 164 161 165 166 166 163 166 164 165 159 157 155 154 149 144 140 139 137 141 148 146 153 157 158 160 168 172 170 171 180
155 227 236 230 215 223 270 241 211 245 249 233 207 318 352 141 152 157 161 170 169 171 172 173 171 168 169 168 165 158 158 156 150 147 141 144 161 166 162 159 156 164 170 172 175 177 181 184 200
205 227 234 227 242 247 250 250 248 247 219 223 241 77 109 150 165 172 175 179 177 175 177 179 176 172 171 169 166 166 168 168 168 170 164 168 166 170 175 164 168 169 177 179 177 180 198 218 231
207 239 235 217 242 238 253 250 233 247 248 249 255 291 148 166 184 194 198 191 186 171 179 181 182 179 176 171 170 168 168 164 167 171 170 170 171 171 178 168 177 179 187 188 188 186 217 224 252
239 235 247 242 242 253 254 272 255 243 245 255 263 274 290 207 193 200 206 201 193 186 176 183 183 181 183 171 175 170 171 170 172 174 173 165 178 179 180 185 183 189 189 186 200 201 224 245 261
238 247 247 245 256 260 263 258 261 259 262 262 268 277 263 248 228 215 206 204 201 198 186 184 184 186 182 178 174 176 177 175 174 173 182 181 182 186 186 191 191 194 188 196 197 209 226 242 254
212 251 265 266 265 258 265 263 252 256 270 245 244 249 259 249 237 228 202 201 202 201 194 181 187 185 183 185 180 179 178 177 180 180 186 189 190 189 196 195 198 200 203 202 211 211 228 251 264
280 274 271 249 248 241 242 260 249 255 249 261 249 245 253 251 241 230 210 204 198 198 191 190 186 185 187 188 184 183 182 181 185 188 188 191 192 195 201 201 203 205 203 212 214 218 229 245 253
258 258 262 208 224 228 199 255 185 3 236 238 242 246 247 246 227 220 220 211 198 192 191 190 189 184 187 189 186 186 185 190 193 195 195 194 195 196 198 203 208 202 206 208 211 219 229 245 250
226 254 232 263 209 218 213 252 119 26 352 261 259 252 251 253 236 228 216 206 194 190 187 190 190 188 186 188 188 187 187 194 194 199 202 201 202 197 202 205 204 202 207 212 217 215 230 240 257
241 236 243 246 234 252 254 250 273 288 305 302 302 296 275 269 254 229 213 202 195 191 187 185 186 189 185 179 181 191 195 198 198 202 206 201 204 201 201 210 212 203 208 210 217 231 221 251 261
254 262 266 260 265 283 278 277 271 272 281 278 277 279 282 282 286 273 221 210 198 192 183 186 184 185 180 177 180 186 195 199 208 210 206 204 205 199 201 212 210 208 221 221 217 226 226 238 234
253 258 262 271 266 258 271 270 269 266 264 265 270 267 270 277 276 271 225 213 199 192 188 185 186 183 184 183 187 192 198 209 209 208 208 204 202 202 206 214 215 208 211 225 228 218 216 232 250
247 250 257 264 274 268 276 276 267 255 250 242 243 253 257 259 269 271 251 210 206 200 190 187 187 180 184 183 176 179 177 190 202 205 206 205 204 203 207 207 210 205 216 225 228 221 237 234 131
254 240 252 259 257 264 311 283 277 262 258 239 237 233 236 244 256 257 260 223 209 208 197 192 188 184 183 177 182 190 195 195 201 199 200 199 203 204 206 206 196 201 205 237 240 240 229 212 210
266 274 248 243 245 258 249 264 272 255 251 247 229 236 238 233 235 241 245 238 213 204 201 195 191 189 185 182 188 191 201 200 184 174 191 199 195 201 203 191 168 200 209 211 234 208 285 299 24
248 307 247 241 246 245 243 234 264 251 251 249 241 235 232 238 236 230 239 248 216 211 201 195 189 188 188 189 190 190 192 179 163 178 188 189 194 191 194 170 159 181 172 349 36 29 1 321 315
230 180 223 210 212 244 255 229 247 259 246 254 257 246 232 234 244 241 230 235 211 195 199 194 191 190 188 189 193 189 190 187 183 183 185 165 182 190 169 151 147 124 85 79 70 40 323 274 261
215 223 248 234 208 233 194 227 247 237 247 249 242 248 250 253 249 236 230 229 243 201 193 193 188 191 191 190 192 191 192 192 191 195 188 171 173 130 105 105 104 110 118 108 113 105 287 273 237
231 225 252 274 287 290 242 254 272 262 260 248 244 246 246 252 255 254 254 247 248 229 202 197 193 195 191 192 189 190 191 192 189 179 160 128 116 118 122 119 117 123 136 163 122 204 149 248 65
227 247 201 181 207 228 245 261 253 288 310 239 241 246 264 274 272 270 260 255 260 253 228 206 201 196 190 189 189 190 189 187 176 156 137 130 131 136 140 141 145 154 159 157 130 126 147 145 143
198 220 228 237 239 258 273 257 279 288 270 307 0 51 357 349 322 294 281 268 257 255 243 215 208 203 196 192 186 184 185 183 167 150 137 139 143 148 148 147 150 162 158 147 110 130 162 147 119
292 260 223 233 193 234 286 257 319 20 36 27 343 321 323 316 302 296 292 281 262 240 230 220 207 202 197 189 183 180 175 168 154 145 140 148 151 156 152 136 138 134 132 116 109 142 177 123 123